Cloud_Cover
100 100 100 100 100 100 100 100 100 100 100 100 100 100 100 100 100 100 41 100 100 40
100 100 100 100 100 100 100 100 100 100 100 100 100 100 100 100 99 99 94 6 5 0
100 100 100 100 100 100 100 100 100 100 100 100 100 100 100 59 43 8 0 0 3 0
100 100 100 100 100 100 100 100 100 100 100 100 100 97 55 13 2 0 0 0 5 3
100 100 100 100 100 100 100 100 100 100 100 100 29 6 1 0 0 0 0 2 5 5
100 100 100 100 100 100 100 100 100 100 100 82 100 6 3 5 2 0 0 5 5 5
100 100 100 100 100 100 100 100 100 85 86 19 70 100 12 4 3 0 4 5 5 27
100 100 100 100 100 93 100 86 93 100 100 100 100 79 4 5 1 3 21 13 5 86
100 100 100 100 100 100 100 100 100 100 100 100 5 5 5 3 5 26 35 45 75 100
100 100 100 100 100 100 100 100 100 100 100 88 100 5 5 30 79 100 100 100 99 100
100 100 100 100 100 100 100 100 100 100 100 97 95 15 5 65 93 100 100 100 100 100
100 100 100 100 100 100 100 97 94 100 100 97 97 37 36 92 95 100 100 100 87 99
100 100 100 100 100 100 94 100 100 100 99 99 93 42 100 84 100 100 100 100 100 74
100 100 100 100 100 100 100 100 100 99 100 100 100 97 82 32 100 100 100 100 100 100